Vorticity
6 6 8 3 2 5 6 5 5 3 2 3 8 -2 6 4 13 4 4 7 7 6 4 5 6 7 8 8 8 8 8 8 8 8 7 5 7 6 6 6 7 7 6 7 7
5 6 6 7 5 3 5 7 6 5 1 6 4 6 -3 2 -0 11 -4 -4 5 11 8 9 9 7 8 8 8 7 7 8 8 7 7 4 5 4 7 7 7 7 6 7 7
5 5 6 5 8 7 3 5 9 6 6 1 4 0 1 11 5 -2 -2 19 -5 9 4 3 -0 3 7 7 8 5 7 10 9 9 8 5 7 6 6 6 8 7 9 8 7
17 6 5 5 5 6 6 2 7 9 8 6 2 5 3 6 3 1 5 -1 7 3 11 8 11 -1 8 6 7 8 9 8 9 8 9 7 6 5 7 6 7 8 8 7 7
11 17 6 6 6 3 8 5 5 7 8 9 7 3 2 1 5 2 4 1 7 3 3 11 2 11 7 6 5 7 8 7 7 9 8 8 7 6 6 8 8 6 6 7 7
7 8 17 2 5 6 3 6 -0 7 7 7 8 7 5 1 6 6 7 6 3 -1 20 -12 9 8 6 7 6 6 7 6 6 7 9 8 7 8 4 5 7 6 5 7 7
7 9 12 12 5 5 6 1 9 -4 7 6 7 8 7 7 4 2 4 5 8 5 8 6 3 7 8 2 6 6 7 9 6 6 7 9 7 8 8 6 7 6 7 7 8
7 9 10 15 10 6 6 5 2 5 -7 7 7 8 8 7 7 5 5 2 4 9 3 10 6 -1 8 8 -2 5 1 4 12 5 5 6 9 7 9 6 5 7 7 8 9
19 15 5 10 14 3 1 4 10 11 29 -0 7 8 9 8 8 6 6 4 4 6 2 3 2 8 4 3 8 -5 -1 4 0 9 10 4 6 8 5 7 7 9 8 7 9
37 30 22 13 4 6 23 14 4 7 38 -5 5 5 7 9 9 8 7 8 7 6 6 3 3 6 2 13 9 11 12 4 4 -3 -2 8 9 7 5 7 5 7 8 8 9
13 36 25 28 32 13 2 12 14 12 10 28 -5 12 -1 7 9 6 8 6 7 7 6 6 4 4 10 4 2 -3 4 9 24 14 16 7 -1 11 9 11 9 10 8 6 7
8 28 26 9 26 22 11 33 19 18 12 12 30 -2 1 8 7 10 8 5 5 9 7 5 5 11 5 3 2 6 5 11 10 -12 9 15 6 4 6 9 8 13 9 7 7
17 15 26 13 12 21 13 14 30 -0 1 24 24 -1 -3 5 11 8 8 7 8 6 6 8 7 8 8 6 4 7 3 8 10 5 10 -3 1 6 6 11 9 11 10 6 6
9 20 16 20 15 19 18 13 4 23 10 5 18 27 -0 -6 10 11 10 8 8 6 10 7 4 8 6 6 7 3 8 3 1 4 8 6 4 -3 6 5 5 9 10 7 5
6 20 19 19 16 23 20 19 17 -6 16 17 9 5 10 4 5 15 13 11 9 7 10 10 9 9 9 11 10 5 -0 3 5 5 5 17 23 22 -3 -3 11 10 8 11 7
12 12 12 24 16 17 22 17 20 23 8 14 17 17 18 10 12 1 4 9 13 8 8 7 7 7 6 8 7 7 6 7 6 5 0 8 5 12 12 23 17 12 11 10 11
14 14 11 16 21 19 18 19 -2 16 9 8 5 8 14 18 18 18 16 27 6 11 12 9 8 7 7 7 7 8 2 3 3 1 -0 4 1 8 13 14 14 17 13 14 10
14 15 18 14 24 15 16 25 20 14 14 2 -3 21 10 3 4 15 15 11 12 7 8 7 10 8 7 11 10 10 9 10 13 9 4 1 2 17 8 22 7 14 12 17 12
21 6 11 14 17 16 14 26 25 17 29 5 31 -2 20 12 25 11 11 15 23 12 7 14 10 5 9 11 6 7 7 10 13 9 7 5 -0 12 15 27 9 12 13 10 11
14 36 -0 14 15 9 3 24 20 4 -22 43 18 -14 16 17 -0 -0 8 9 11 19 13 6 10 9 8 8 9 9 9 10 -1 -2 -0 7 4 16 19 16 12 12 11 11 11
9 20 19 11 14 11 12 13 9 10 -6 19 19 22 8 -0 14 11 17 4 2 11 11 12 14 13 10 9 9 8 6 4 1 -1 -2 5 11 16 17 14 7 17 14 16 19
16 29 23 15 9 16 4 25 19 6 13 10 10 19 27 0 33 1 36 3 10 5 2 13 10 4 10 11 10 14 11 5 2 8 6 13 19 20 17 11 16 8 6 9 13
14 10 23 22 13 7 6 14 18 8 17 16 7 12 -6 5 3 5 16 20 11 10 7 3 3 9 11 9 7 4 10 9 5 1 14 8 20 15 17 9 9 10 5 4 3
12 13 19 29 15 9 3 8 7 5 8 5 8 10 10 14 17 6 5 24 17 8 -0 10 16 -1 0 3 7 9 5 11 16 16 26 9 11 3 4 4 5 5 4 5 6
21 12 5 30 23 22 16 13 12 7 4 1 6 8 12 8 10 16 14 6 7 7 10 21 9 3 12 8 5 7 -2 17 6 23 -1 6 6 11 10 9 8 8 8 7 8
12 20 12 9 6 23 29 22 14 11 7 5 8 36 18 18 14 5 19 9 9 6 7 5 4 38 1 3 2 7 11 14 11 -1 5 10 7 2 5 5 3 9 20 14 8
6 11 17 12 10 6 7 22 26 25 15 8 5 8 15 16 25 12 7 7 9 6 6 5 11 14 22 10 15 24 5 9 24 19 10 5 13 5 6 9 13 12 -0 -5 6
Height
5769 5768 5768 5766 5765 5765 5765 5765 5766 5768 5770 5771 5771 5772 5772 5775 5777 5779 5780 5783 5784 5786 5788 5789 5791 5793 5795 5797 5798 5800 5802 5803 5805 5805 5807 5810 5810 5810 5812 5814 5817 5819 5818 5821 5821
5763 5763 5763 5762 5761 5760 5760 5760 5761 5762 5764 5766 5767 5768 5770 5771 5773 5775 5776 5778 5779 5781 5783 5784 5786 5789 5791 5792 5794 5795 5796 5798 5799 5800 5802 5804 5806 5806 5808 5810 5813 5814 5814 5815 5816
5755 5756 5755 5755 5755 5754 5754 5754 5755 5755 5757 5760 5761 5763 5765 5767 5770 5769 5772 5772 5776 5777 5778 5780 5782 5784 5786 5787 5789 5790 5792 5793 5794 5795 5797 5798 5802 5801 5803 5806 5808 5809 5810 5811 5811
5747 5748 5747 5747 5747 5747 5747 5747 5747 5748 5749 5752 5754 5757 5759 5761 5766 5765 5766 5768 5770 5772 5774 5776 5778 5781 5781 5782 5783 5786 5788 5789 5790 5790 5792 5794 5795 5797 5799 5801 5802 5803 5804 5806 5807
5738 5737 5738 5738 5737 5737 5738 5738 5739 5740 5741 5742 5746 5749 5751 5755 5759 5759 5760 5762 5764 5767 5769 5771 5773 5774 5775 5776 5780 5781 5783 5785 5785 5786 5787 5789 5790 5791 5793 5797 5797 5797 5799 5801 5803
5728 5726 5726 5726 5727 5728 5728 5727 5729 5731 5732 5732 5735 5738 5742 5748 5750 5752 5754 5756 5758 5760 5762 5765 5767 5769 5770 5772 5775 5776 5777 5779 5780 5782 5783 5784 5785 5787 5789 5789 5792 5793 5793 5794 5797
5717 5715 5714 5713 5713 5714 5716 5718 5718 5720 5723 5724 5725 5728 5734 5739 5741 5743 5746 5749 5752 5754 5756 5757 5761 5763 5764 5767 5769 5770 5773 5775 5776 5776 5779 5778 5781 5782 5782 5784 5785 5787 5789 5789 5791
5703 5702 5701 5700 5700 5701 5701 5702 5705 5708 5711 5714 5715 5717 5723 5727 5733 5736 5739 5742 5744 5747 5750 5751 5753 5755 5758 5761 5763 5765 5768 5770 5770 5770 5773 5773 5778 5775 5778 5779 5779 5780 5783 5784 5785
5688 5687 5687 5687 5688 5688 5688 5688 5690 5692 5694 5701 5706 5708 5712 5718 5724 5725 5730 5733 5736 5740 5742 5743 5746 5748 5751 5755 5757 5761 5763 5763 5764 5765 5767 5768 5770 5770 5771 5773 5773 5775 5777 5778 5778
5673 5670 5668 5669 5670 5672 5673 5673 5674 5678 5680 5684 5691 5698 5703 5711 5714 5717 5720 5723 5727 5730 5733 5736 5737 5740 5746 5749 5754 5753 5752 5755 5758 5761 5761 5762 5763 5764 5765 5766 5767 5769 5770 5772 5773
5660 5656 5652 5651 5652 5652 5656 5660 5663 5665 5668 5673 5677 5683 5691 5698 5701 5705 5708 5713 5717 5720 5725 5727 5726 5735 5743 5741 5742 5742 5746 5749 5751 5754 5755 5755 5757 5758 5759 5759 5761 5762 5765 5766 5767
5651 5645 5641 5641 5639 5640 5640 5643 5650 5652 5656 5661 5666 5671 5680 5685 5691 5695 5698 5704 5708 5713 5714 5715 5719 5733 5730 5730 5734 5735 5738 5742 5743 5745 5747 5748 5750 5748 5751 5753 5753 5756 5758 5760 5761
5642 5637 5633 5631 5629 5630 5630 5631 5636 5640 5644 5652 5656 5660 5668 5673 5679 5684 5688 5692 5697 5701 5703 5708 5716 5717 5719 5722 5725 5729 5729 5734 5733 5734 5736 5739 5740 5741 5742 5745 5745 5749 5752 5752 5756
5634 5629 5625 5622 5620 5618 5620 5623 5626 5629 5633 5644 5647 5653 5657 5663 5666 5676 5678 5682 5685 5693 5696 5696 5702 5707 5710 5714 5718 5720 5723 5725 5724 5726 5726 5729 5727 5734 5734 5736 5738 5739 5744 5746 5748
5627 5621 5617 5614 5611 5610 5611 5614 5618 5623 5622 5634 5639 5642 5649 5652 5660 5665 5670 5671 5676 5683 5685 5688 5695 5699 5701 5707 5709 5712 5714 5716 5716 5715 5715 5716 5718 5723 5726 5727 5730 5731 5734 5738 5740
5620 5615 5610 5607 5604 5603 5603 5605 5610 5614 5614 5622 5627 5634 5638 5642 5647 5654 5658 5662 5667 5671 5673 5676 5682 5687 5691 5695 5698 5700 5704 5705 5705 5706 5701 5711 5710 5711 5716 5721 5720 5722 5723 5727 5732
5613 5608 5603 5600 5598 5595 5596 5599 5603 5604 5611 5616 5619 5626 5631 5635 5639 5642 5646 5650 5657 5660 5664 5669 5672 5677 5681 5685 5687 5690 5696 5695 5694 5693 5695 5703 5699 5703 5706 5711 5712 5714 5714 5715 5719
5609 5604 5599 5595 5593 5591 5592 5595 5596 5599 5604 5610 5612 5617 5623 5626 5631 5634 5637 5639 5645 5650 5654 5657 5661 5666 5672 5675 5680 5682 5684 5684 5684 5686 5690 5689 5685 5693 5696 5700 5702 5704 5706 5706 5706
5605 5601 5595 5592 5589 5589 5590 5585 5589 5595 5599 5604 5606 5610 5616 5620 5622 5626 5629 5632 5636 5640 5644 5648 5651 5657 5660 5665 5669 5670 5671 5679 5676 5676 5676 5677 5680 5681 5685 5690 5692 5694 5697 5699 5699
5602 5596 5592 5590 5587 5587 5588 5587 5589 5592 5596 5598 5601 5604 5608 5611 5614 5617 5619 5625 5628 5631 5635 5636 5640 5645 5649 5653 5656 5659 5665 5665 5665 5664 5665 5667 5668 5670 5677 5680 5682 5684 5686 5688 5690
5598 5592 5588 5586 5586 5584 5584 5585 5586 5589 5592 5594 5595 5596 5600 5603 5606 5608 5612 5618 5619 5623 5624 5627 5630 5635 5639 5643 5648 5651 5652 5654 5657 5655 5656 5658 5658 5660 5667 5669 5672 5675 5676 5679 5681
5595 5590 5584 5582 5583 5582 5580 5579 5582 5584 5584 5586 5587 5589 5592 5596 5597 5598 5601 5606 5610 5613 5614 5618 5618 5622 5628 5631 5634 5637 5641 5643 5643 5648 5647 5646 5648 5650 5657 5660 5663 5666 5668 5670 5672
5594 5588 5583 5579 5578 5577 5576 5576 5576 5578 5578 5579 5580 5582 5585 5587 5589 5591 5593 5597 5600 5602 5604 5608 5610 5614 5617 5621 5624 5628 5632 5634 5635 5636 5634 5637 5639 5644 5646 5650 5653 5656 5658 5660 5662
5592 5587 5582 5578 5575 5573 5570 5570 5571 5572 5571 5571 5573 5574 5576 5577 5580 5583 5586 5588 5590 5593 5595 5597 5601 5605 5609 5613 5616 5617 5621 5622 5622 5621 5625 5626 5630 5635 5638 5641 5643 5644 5646 5649 5651
5589 5584 5580 5576 5572 5569 5567 5566 5565 5565 5565 5565 5567 5567 5566 5567 5569 5572 5576 5578 5581 5583 5586 5588 5592 5594 5597 5600 5603 5606 5608 5609 5609 5615 5613 5619 5621 5626 5627 5628 5631 5633 5636 5638 5640
5586 5582 5578 5573 5569 5565 5561 5559 5558 5558 5558 5558 5557 5556 5556 5557 5560 5563 5564 5568 5570 5574 5575 5578 5581 5582 5584 5588 5590 5592 5595 5597 5600 5601 5603 5607 5612 5615 5615 5616 5619 5622 5624 5626 5628
5582 5578 5573 5567 5564 5561 5557 5553 5551 5549 5549 5548 5549 5548 5548 5549 5549 5551 5554 5557 5560 5564 5566 5567 5569 5571 5574 5577 5577 5580 5585 5587 5590 5591 5594 5595 5604 5602 5602 5604 5606 5609 5611 5613 5615